Regional Weather Roundup
Issued by NWS

Home | Current Version | Previous Version | Graphics & Text | Print | Product List | Glossary On
Versions: 1 2 3 4 5 6 7 8 9 10 11 12 13 14 15 16 17 18 19 20 21 22 23 24 25 26 27
000
ASUS45 KBOI 200810
RWRID

IDAHO REGIONAL WEATHER ROUNDUP
NATIONAL WEATHER SERVICE BOISE ID
200 AM MDT WED SEP 20 2017

NOTE: "FAIR" INDICATES FEW OR NO CLOUDS BELOW 12000 FEET
WITH NO SIGNIFICANT WEATHER AND/OR OBSTRUCTIONS TO VISIBILITY

IDZ012-014-200900-
SOUTHWEST IDAHO


CITY           SKY/WX    TMP DP  RH WIND       PRES   REMARKS
BOISE          CLOUDY    50  40  68 SE10      29.84F
CALDWELL       CLOUDY    49  41  74 E7        29.83F
MOUNTAIN HOME  CLEAR     44  39  80 SE9       29.86F
$$

IDZ016-017-200900-
SOUTHCENTRAL IDAHO


CITY           SKY/WX    TMP DP  RH WIND       PRES   REMARKS
BURLEY         CLEAR     38  32  79 S8        29.90F WCI  32
JEROME         PTCLDY    41  35  79 SE7       29.90F
TWIN FALLS     CLOUDY    42  33  70 S9        29.91S
$$

IDZ019>023-200900-
SOUTHEAST IDAHO


CITY           SKY/WX    TMP DP  RH WIND       PRES   REMARKS
IDAHO FALLS    PTCLDY    43  31  62 S17       29.89F
POCATELLO      CLEAR     44  30  57 S13       29.93R
REXBURG        CLEAR     40  31  70 S13       29.88R WCI  32
$$

IDZ006-010-011-018-031-032-200900-
CENTRAL IDAHO MOUNTAINS


CITY           SKY/WX    TMP DP  RH WIND       PRES   REMARKS
MCCALL         CLOUDY    37  35  92 CALM      29.79F
HAILEY         CLOUDY    36  32  87 NW5       29.93R WCI  32
STANLEY          N/A     34  32  92 VRB3      29.88F
SALMON         CLOUDY    43  35  73 E9        29.83S
CHALLIS        PTCLDY    42  28  57 S14       29.83F
$$

IDZ002-004-006-007-026-200900-
NORTHERN IDAHO


CITY           SKY/WX    TMP DP  RH WIND       PRES   REMARKS
LEWISTON       MOCLDY    54  40  59 S9        29.71F
LOWELL           N/A     47  44  90 CALM      29.79F
COEUR D`ALENE  CLOUDY    44  42  93 SE6       29.68F
MULLAN PASS    SNOW      31  29  92 SW6       29.66F VSB 1/4 WCI  25
$$




USA.gov is the U.S. government's official web portal to all federal, state and local government web resources and services.